Date String (YYYY-MM-DD hh:mm:ss) UTC,Instrument flags,Ambient pressure (hPa),Sample flow (lpm),Bypass flow (lpm),Sample temperature (°C),Ambient temperature (°C),ASC tube jacket temperature (°C),LED temperature (°C),Box temperature (°C),Sample RH (%),Span deviation,Mass concentration (μg/m³),Mass concentration (μg/m³),Mass concentration (μg/m³)
DateTimeUTC,F1_M11,P_M11,Q1_M11,Q2_M11,T1_M11,T2_M11,T3_M11,T4_M11,T5_M11,U1_M11,ZSPAN_M11,X0_M11,X2_M11,X1_M11
2022-07-20 03:00:00,,0826.9,5.00,0.00,29.2,28.0,00.0,37.9,31.3,29.0,0000.0,0015.79,0006.34,0004.99
2022-07-20 03:01:00,,0826.9,5.01,0.00,29.3,28.2,00.0,37.9,31.3,28.9,0000.0,0015.76,0006.32,0004.97
2022-07-20 03:02:00,,0826.9,5.00,0.00,29.3,27.8,00.0,37.9,31.3,28.9,0000.0,0015.41,0006.33,0004.95
2022-07-20 03:03:00,,0826.9,5.00,0.00,29.3,27.1,00.0,37.9,31.2,29.1,0000.0,0015.06,0006.32,0004.92
2022-07-20 03:04:00,,0826.9,4.99,0.00,29.2,26.9,00.0,37.8,31.1,29.2,0000.0,0015.20,0006.34,0004.90
2022-07-20 03:05:00,,0826.8,5.00,0.00,29.2,26.9,00.0,37.8,31.0,29.2,0000.0,0015.10,0006.32,0004.89
2022-07-20 03:06:00,,0826.9,4.99,0.00,29.1,27.1,00.0,37.9,31.0,29.2,0000.0,0015.21,0006.33,0004.88
2022-07-20 03:07:00,,0827.0,5.02,0.00,29.1,27.2,00.0,37.9,31.0,29.1,0000.0,0014.51,0006.34,0004.87
2022-07-20 03:08:00,,0826.9,4.99,0.00,29.2,27.5,00.0,37.9,31.1,29.3,0000.0,0014.51,0006.34,0004.86
2022-07-20 03:09:00,,0827.0,5.00,0.00,29.2,27.7,00.0,37.9,31.1,29.3,0000.0,0014.56,0006.35,0004.87
2022-07-20 03:10:00,,0827.0,4.99,0.00,29.2,27.8,00.0,37.9,31.2,29.3,0000.0,0014.29,0006.35,0004.86
2022-07-20 03:11:00,,0827.2,5.00,0.00,29.3,28.0,00.0,37.9,31.3,29.2,0000.0,0014.39,0006.36,0004.86
2022-07-20 03:12:00,,0827.0,5.00,0.00,29.3,28.2,00.0,38.0,31.3,29.2,0000.0,0014.31,0006.38,0004.86
2022-07-20 03:13:00,,0826.9,5.00,0.00,29.3,27.9,00.0,37.9,31.3,29.3,0000.0,0014.44,0006.40,0004.86
2022-07-20 03:14:00,,0826.9,5.01,0.00,29.3,27.3,00.0,37.9,31.2,29.5,0000.0,0014.37,0006.35,0004.87
2022-07-20 03:15:00,,0827.0,4.99,0.00,29.3,26.9,00.0,37.9,31.1,29.7,0000.0,0014.44,0006.33,0004.89
2022-07-20 03:16:00,,0827.0,5.02,0.00,29.2,26.9,00.0,37.9,31.0,29.9,0000.0,0014.77,0006.38,0004.88
2022-07-20 03:17:00,,0827.0,4.99,0.00,29.2,27.0,00.0,37.9,31.0,30.1,0000.0,0014.57,0006.34,0004.89
2022-07-20 03:18:00,,0827.0,5.01,0.00,29.1,27.2,00.0,37.9,31.0,30.3,0000.0,0014.69,0006.37,0004.92
2022-07-20 03:19:00,,0827.0,5.00,0.00,29.2,27.4,00.0,37.9,31.1,30.3,0000.0,0014.87,0006.41,0004.93
2022-07-20 03:20:00,,0827.2,4.99,0.00,29.2,27.6,00.0,37.9,31.1,30.4,0000.0,0014.93,0006.47,0004.96
2022-07-20 03:21:00,,0827.2,5.00,0.00,29.2,27.8,00.0,37.9,31.2,30.4,0000.0,0014.93,0006.46,0004.99
2022-07-20 03:22:00,,0827.2,5.00,0.00,29.2,28.0,00.0,37.9,31.2,30.3,0000.0,0015.60,0006.49,0005.01
2022-07-20 03:23:00,,0827.2,5.00,0.00,29.3,28.1,00.0,38.0,31.3,30.2,0000.0,0017.56,0006.56,0005.03
2022-07-20 03:24:00,,0827.3,5.01,0.00,29.3,28.2,00.0,38.0,31.4,30.1,0000.0,0018.36,0006.63,0005.05
2022-07-20 03:25:00,,0827.4,5.00,0.00,29.3,27.8,00.0,37.9,31.3,30.1,0000.0,0019.08,0006.65,0005.07
2022-07-20 03:26:00,,0827.4,4.99,0.00,29.3,27.1,00.0,37.9,31.2,32.4,0000.0,0018.89,0006.63,0005.07
2022-07-20 03:27:00,,0827.4,5.01,0.00,29.3,26.9,00.0,37.9,31.1,33.6,0000.0,0018.64,0006.72,0005.09
2022-07-20 03:28:00,,0827.4,4.99,0.00,29.2,26.9,00.0,37.9,31.0,33.6,0000.0,0018.66,0006.84,0005.12
2022-07-20 03:29:00,,0827.5,5.00,0.00,29.2,27.0,00.0,37.9,31.0,34.3,0000.0,0019.17,0006.87,0005.13
2022-07-20 03:30:00,,0827.4,4.99,0.00,29.2,27.2,00.0,37.9,31.0,33.8,0000.0,0020.47,0006.93,0005.16
2022-07-20 03:31:00,,0827.4,5.00,0.00,29.2,27.4,00.0,37.9,31.1,33.6,0000.0,0020.77,0006.92,0005.16
2022-07-20 03:32:00,,0827.4,5.00,0.00,29.2,27.6,00.0,37.9,31.1,34.0,0000.0,0021.70,0006.97,0005.16
2022-07-20 03:33:00,,0827.4,5.00,0.00,29.2,27.8,00.0,37.9,31.2,33.5,0000.0,0021.94,0006.99,0005.17
2022-07-20 03:34:00,,0827.5,4.99,0.00,29.2,28.0,00.0,38.0,31.3,33.3,0000.0,0021.05,0007.03,0005.19
2022-07-20 03:35:00,,0827.5,5.00,0.00,29.3,28.1,00.0,38.0,31.3,33.3,0000.0,0020.22,0007.00,0005.20
2022-07-20 03:36:00,,0827.6,5.01,0.00,29.3,28.3,00.0,38.0,31.4,33.2,0000.0,0019.49,0007.02,0005.22
2022-07-20 03:37:00,,0827.5,4.99,0.00,29.4,28.0,00.0,38.0,31.4,33.3,0000.0,0018.97,0007.08,0005.22
2022-07-20 03:38:00,,0827.5,5.01,0.00,29.3,27.3,00.0,37.9,31.2,33.5,0000.0,0019.52,0007.12,0005.23
2022-07-20 03:39:00,,0827.6,5.00,0.00,29.3,26.8,00.0,37.9,31.1,33.5,0000.0,0020.30,0007.10,0005.24
2022-07-20 03:40:00,,0827.7,4.99,0.00,29.2,26.8,00.0,37.9,31.0,33.6,0000.0,0020.41,0007.06,0005.24
2022-07-20 03:41:00,,0827.7,5.01,0.00,29.2,26.9,00.0,37.9,31.0,33.8,0000.0,0019.23,0007.04,0005.24
2022-07-20 03:42:00,,0827.7,4.99,0.00,29.2,27.1,00.0,37.9,31.0,34.2,0000.0,0018.96,0007.06,0005.25
2022-07-20 03:43:00,,0827.8,5.00,0.00,29.2,27.3,00.0,37.9,31.1,34.3,0000.0,0018.40,0007.07,0005.26
2022-07-20 03:44:00,,0827.8,5.00,0.00,29.2,27.5,00.0,37.9,31.1,34.3,0000.0,0017.63,0007.08,0005.25
2022-07-20 03:45:00,,0827.9,5.00,0.00,29.2,27.7,00.0,37.9,31.2,34.1,0000.0,0018.13,0007.09,0005.25
2022-07-20 03:46:00,,0827.9,5.00,0.00,29.2,27.9,00.0,38.0,31.2,33.8,0000.0,0018.15,0007.14,0005.25
2022-07-20 03:47:00,,0827.9,5.01,0.00,29.3,28.1,00.0,38.0,31.3,33.6,0000.0,0018.63,0007.18,0005.23
2022-07-20 03:48:00,,0827.8,4.99,0.00,29.3,28.2,00.0,38.0,31.4,33.6,0000.0,0019.68,0007.19,0005.23
2022-07-20 03:49:00,,0827.9,5.00,0.00,29.4,28.1,00.0,38.0,31.4,33.5,0000.0,0018.69,0007.09,0005.22
2022-07-20 03:50:00,,0827.8,5.01,0.00,29.3,27.5,00.0,37.9,31.3,33.2,0000.0,0017.65,0007.09,0005.20
2022-07-20 03:51:00,,0827.9,4.99,0.00,29.3,27.0,00.0,37.9,31.2,33.2,0000.0,0017.82,0007.16,0005.20
2022-07-20 03:52:00,,0827.9,5.01,0.00,29.3,26.9,00.0,37.9,31.1,33.2,0000.0,0017.43,0007.12,0005.18
2022-07-20 03:53:00,,0827.9,5.01,0.00,29.2,26.9,00.0,37.9,31.0,33.4,0000.0,0017.40,0007.12,0005.16
2022-07-20 03:54:00,,0828.0,5.00,0.00,29.2,27.1,00.0,37.9,31.0,33.3,0000.0,0017.36,0007.11,0005.15
2022-07-20 03:55:00,,0828.0,5.00,0.00,29.2,27.3,00.0,37.9,31.0,33.2,0000.0,0017.52,0007.10,0005.15
2022-07-20 03:56:00,,0828.0,5.01,0.00,29.2,27.5,00.0,37.9,31.1,33.1,0000.0,0016.95,0007.09,0005.12
2022-07-20 03:57:00,,0828.1,5.00,0.00,29.2,27.7,00.0,37.9,31.1,32.9,0000.0,0016.65,0007.04,0005.09
2022-07-20 03:58:00,,0828.1,5.00,0.00,29.2,27.8,00.0,37.9,31.2,33.1,0000.0,0016.66,0007.06,0005.08
2022-07-20 03:59:00,,0828.1,4.99,0.00,29.3,28.0,00.0,38.0,31.3,33.3,0000.0,0016.18,0007.06,0005.08
